Quakertown, PA

1:06 AM EDT on June 23, 2017 (GMT -0400)
Quakertown

Weather History for KUKT - March, 2013

Change the Weather History Date:

Tuesday, March 19, 2013

  Actual Average (KABE) Record (KABE)
Temperature  
Mean Temperature 40 °F -  
Max Temperature 48 °F 50 °F 77 °F (2012)
Min Temperature 32 °F 30 °F -1 °F (1967)
Degree Days  
Heating Degree Days 25    
Moisture  
Dew Point 29 °F    
Average Humidity 75    
Maximum Humidity 100    
Minimum Humidity 37    
Precipitation  
Precipitation 0.05 in - - ()
Sea Level Pressure  
Sea Level Pressure 29.78 in    
Wind  
Wind Speed 7 mph (WNW)    
Max Wind Speed 15 mph    
Max Gust Speed 25 mph    
Visibility 8 miles    
Events      
Averages and records for this station are not official NWS values.
T = Trace of Precipitation, MM = Missing Value Source: NWS Daily Summary

Daily Weather History Graph

Daily Weather History Graph

Search for Another Location

Airport or City:

Trip Planner

Search our weather history database for the weather conditions in past years. The results will help you decide how hot, cold, wet, or windy it might be!

Date:

Astronomy

Mar. 19, 2013 Rise Set
Actual Time 7:06 AM EDT 7:12 PM EDT
Civil Twilight 6:39 AM EDT 7:40 PM EDT
Nautical Twilight 6:07 AM EDT 8:11 PM EDT
Astronomical Twilight 5:34 AM EDT 8:44 PM EDT
Moon 11:53 AM EDT (3/19) 1:58 AM EDT (3/19)
Length of Visible Light 13h 00m
Length of Day
12h 06m
Waxing Crescent, 49% of the Moon is Illuminated
Mar 19
Waxing Crescent
Mar 19
First Quarter
Mar 27
Full
Apr 3
Last Quarter
Apr 10
New

Hourly Weather History & Observations

Time (EDT) Temp. Windchill Dew Point Humidity Pressure Visibility Wind Dir Wind Speed Gust Speed Precip Events Conditions
12:10 AM 32.0 °F 24.8 °F 32.0 °F 100% 29.91 in 5.0 mi East 8.1 mph - 0.01 in   Overcast
12:30 AM 32.0 °F 25.6 °F 32.0 °F 100% 29.91 in 3.0 mi ENE 6.9 mph - 0.01 in   Overcast
12:50 AM 32.0 °F 26.4 °F 32.0 °F 100% 29.89 in 2.0 mi ENE 5.8 mph - 0.03 in   Overcast
1:10 AM 32.0 °F 27.5 °F 32.0 °F 100% 29.89 in 2.5 mi ENE 4.6 mph - 0.01 in   Overcast
1:30 AM 32.0 °F 24.8 °F 32.0 °F 100% 29.89 in 3.0 mi East 8.1 mph - 0.02 in   Overcast
2:10 AM 33.8 °F 30.8 °F 32.0 °F 93% 29.87 in 4.0 mi ENE 3.5 mph - 0.01 in   Overcast
2:50 AM 33.8 °F 25.3 °F 32.0 °F 93% 29.84 in 8.0 mi ENE 11.5 mph - 0.02 in   Overcast
3:10 AM 33.8 °F 26.4 °F 32.0 °F 93% 29.83 in 10.0 mi ENE 9.2 mph 17.3 mph N/A   Overcast
3:30 AM 33.8 °F 27.0 °F 32.0 °F 93% 29.82 in 10.0 mi ENE 8.1 mph - N/A   Overcast
3:50 AM 33.8 °F 27.7 °F 32.0 °F 93% 29.82 in 10.0 mi ENE 6.9 mph - N/A   Overcast
4:10 AM 33.8 °F 27.7 °F 32.0 °F 93% 29.81 in 10.0 mi ENE 6.9 mph - N/A   Overcast
4:30 AM 33.8 °F 27.0 °F 32.0 °F 93% 29.80 in 10.0 mi ENE 8.1 mph - N/A   Overcast
4:50 AM 33.8 °F 27.0 °F 32.0 °F 93% 29.79 in 10.0 mi ENE 8.1 mph - N/A   Overcast
5:10 AM 33.8 °F 27.7 °F 32.0 °F 93% 29.78 in 9.0 mi ENE 6.9 mph - N/A   Overcast
5:30 AM 33.8 °F 27.7 °F 32.0 °F 93% 29.78 in 9.0 mi ENE 6.9 mph - N/A   Overcast
5:50 AM 33.8 °F 29.6 °F 32.0 °F 93% 29.77 in 5.0 mi ENE 4.6 mph - N/A   Overcast
6:10 AM 33.8 °F 30.8 °F 32.0 °F 93% 29.78 in 3.0 mi ENE 3.5 mph - N/A   Overcast
6:30 AM 32.0 °F - 32.0 °F 100% 29.78 in 1.8 mi Calm Calm - N/A   Overcast
6:50 AM 32.0 °F 28.7 °F 32.0 °F 100% 29.77 in 1.8 mi NE 3.5 mph - N/A   Overcast
7:10 AM 32.0 °F 28.7 °F 32.0 °F 100% 29.77 in 2.5 mi ENE 3.5 mph - N/A   Overcast
7:30 AM 32.0 °F 27.5 °F 32.0 °F 100% 29.76 in 1.5 mi ENE 4.6 mph - N/A   Overcast
7:50 AM 32.0 °F - 32.0 °F 100% 29.76 in 1.5 mi Calm Calm - N/A   Overcast
8:10 AM 33.8 °F 30.8 °F 32.0 °F 93% 29.77 in 1.2 mi NNE 3.5 mph - N/A   Overcast
8:30 AM 32.0 °F 28.7 °F 32.0 °F 100% 29.77 in 1.2 mi NNE 3.5 mph - N/A   Overcast
8:50 AM 33.8 °F 29.6 °F 32.0 °F 93% 29.78 in 1.5 mi WNW 4.6 mph - N/A   Overcast
9:10 AM 33.8 °F 30.8 °F 32.0 °F 93% 29.79 in 1.2 mi WNW 3.5 mph - N/A   Overcast
9:30 AM 33.8 °F 30.8 °F 32.0 °F 93% 29.79 in 1.0 mi West 3.5 mph - N/A   Overcast
9:50 AM 32.0 °F 26.4 °F 32.0 °F 100% 29.79 in 2.5 mi WNW 5.8 mph - N/A   Overcast
10:10 AM 32.0 °F - 32.0 °F 100% 29.79 in 2.0 mi Calm Calm - 0.01 in   Overcast
10:25 AM 32.0 °F 28.7 °F 32.0 °F 100% 29.78 in 4.0 mi NNE 3.5 mph - 0.01 in   Overcast
10:50 AM 33.8 °F 29.6 °F 32.0 °F 93% 29.78 in 9.0 mi WNW 4.6 mph - 0.01 in   Unknown
11:10 AM 35.6 °F 29.9 °F 32.0 °F 87% 29.79 in 10.0 mi West 6.9 mph - N/A   Overcast
11:30 AM 35.6 °F 31.7 °F 32.0 °F 87% 29.79 in 10.0 mi West 4.6 mph - N/A   Overcast
11:50 AM 35.6 °F - 32.0 °F 87% 29.78 in 10.0 mi Calm Calm - N/A   Overcast
12:10 PM 37.4 °F 33.8 °F 33.8 °F 87% 29.78 in 10.0 mi NW 4.6 mph - N/A   Overcast
12:30 PM 37.4 °F 33.8 °F 33.8 °F 87% 29.77 in 10.0 mi NNW 4.6 mph - N/A   Overcast
12:50 PM 39.2 °F 35.9 °F 35.6 °F 87% 29.76 in 10.0 mi NNE 4.6 mph - N/A   Mostly Cloudy
1:10 PM 41.0 °F 38.0 °F 35.6 °F 81% 29.74 in 10.0 mi North 4.6 mph - N/A   Mostly Cloudy
1:30 PM 41.0 °F - 35.6 °F 81% 29.74 in 10.0 mi Calm Calm - N/A   Scattered Clouds
1:50 PM 42.8 °F 38.0 °F 35.6 °F 76% 29.74 in 10.0 mi West 8.1 mph - N/A   Partly Cloudy
2:10 PM 42.8 °F 37.5 °F 33.8 °F 70% 29.74 in 5.0 mi West 9.2 mph - N/A   Mostly Cloudy
2:30 PM 44.6 °F 39.2 °F 35.6 °F 71% 29.73 in 10.0 mi West 10.4 mph - N/A   Scattered Clouds
2:50 PM 46.4 °F 42.4 °F 35.6 °F 66% 29.73 in 10.0 mi WSW 8.1 mph - N/A   Partly Cloudy
3:10 PM 46.4 °F 41.9 °F 33.8 °F 62% 29.73 in 10.0 mi West 9.2 mph - N/A   Clear
3:30 PM 46.4 °F 41.9 °F 30.2 °F 53% 29.72 in 10.0 mi SW 9.2 mph - N/A   Scattered Clouds
3:50 PM 46.4 °F 42.9 °F 30.2 °F 53% 29.71 in 10.0 mi West 6.9 mph - N/A   Partly Cloudy
4:10 PM 48.2 °F - 28.4 °F 46% 29.72 in 10.0 mi West 9.2 mph 17.3 mph N/A   Partly Cloudy
4:30 PM 48.2 °F - 28.4 °F 46% 29.71 in 10.0 mi WSW 8.1 mph - N/A   Partly Cloudy
4:50 PM 48.2 °F - 28.4 °F 46% 29.71 in 10.0 mi SW 10.4 mph - N/A   Clear
5:10 PM 48.2 °F - 28.4 °F 46% 29.71 in 10.0 mi WSW 8.1 mph - N/A   Clear
5:30 PM 48.2 °F - 28.4 °F 46% 29.70 in 10.0 mi WSW 8.1 mph - N/A   Clear
5:50 PM 46.4 °F 42.4 °F 28.4 °F 50% 29.70 in 10.0 mi SW 8.1 mph - N/A   Partly Cloudy
6:10 PM 48.2 °F - 28.4 °F 46% 29.71 in 10.0 mi WSW 8.1 mph - N/A   Scattered Clouds
6:30 PM 46.4 °F 41.5 °F 26.6 °F 46% 29.71 in 10.0 mi WSW 10.4 mph 18.4 mph N/A   Partly Cloudy
6:50 PM 46.4 °F 41.9 °F 26.6 °F 46% 29.72 in 10.0 mi WSW 9.2 mph - N/A   Clear
7:10 PM 44.6 °F 40.7 °F 28.4 °F 53% 29.73 in 10.0 mi West 6.9 mph - N/A   Clear
7:30 PM 44.6 °F 43.1 °F 28.4 °F 53% 29.74 in 10.0 mi WSW 3.5 mph - N/A   Partly Cloudy
7:50 PM 42.8 °F 40.1 °F 28.4 °F 57% 29.74 in 10.0 mi WSW 4.6 mph - N/A   Partly Cloudy
8:10 PM 44.6 °F 38.1 °F 21.2 °F 39% 29.76 in 10.0 mi WSW 13.8 mph 21.9 mph N/A   Scattered Clouds
8:30 PM 44.6 °F 39.7 °F 19.4 °F 37% 29.78 in 10.0 mi WSW 9.2 mph 21.9 mph N/A   Partly Cloudy
8:50 PM 41.0 °F 34.3 °F 19.4 °F 42% 29.79 in 10.0 mi West 11.5 mph 20.7 mph N/A   Clear
9:30 PM 39.2 °F 30.8 °F 17.6 °F 42% 29.81 in 10.0 mi West 15.0 mph 23.0 mph N/A   Clear
9:50 PM 37.4 °F 29.3 °F 17.6 °F 45% 29.82 in 10.0 mi West 12.7 mph 23.0 mph N/A   Scattered Clouds
10:10 PM 37.4 °F 28.5 °F 17.6 °F 45% 29.83 in 10.0 mi West 15.0 mph 25.3 mph N/A   Mostly Cloudy
10:30 PM 35.6 °F 29.2 °F 17.6 °F 48% 29.83 in 10.0 mi West 8.1 mph 20.7 mph N/A   Scattered Clouds
10:50 PM 35.6 °F 28.0 °F 17.6 °F 48% 29.84 in 10.0 mi WSW 10.4 mph 17.3 mph N/A   Scattered Clouds
11:10 PM 35.6 °F 28.6 °F 17.6 °F 48% 29.85 in 10.0 mi West 9.2 mph 18.4 mph N/A   Partly Cloudy
11:30 PM 33.8 °F 25.3 °F 17.6 °F 52% 29.86 in 10.0 mi West 11.5 mph 16.1 mph N/A   Clear
11:50 PM 33.8 °F 24.8 °F 17.6 °F 52% 29.86 in 10.0 mi West 12.7 mph 19.6 mph N/A   Clear